Other Public Products
Issued by NWS Charleston, SC

Current Version | Previous Version | Graphics & Text | Print | Product List | Glossary On
Versions: 1 2 3 4 5 6 7 8 9 10 11 12 13 14 15 16 17 18 19 20 21 22 23 24 25 26 27 28 29 30 31 32 33 34 35 36 37 38 39 40 41 42 43 44 45 46 47 48 49 50
000
FPUS82 KCHS 221141
OPUCHS

TEST...KCHS/KSAV Gateway Observations...TEST
National Weather Service Charleston SC
700 AM EDT FRI SEP 22 2017

NOTE: "fair" indicates few or no clouds below 12,000 feet with no
significant weather and/or obstructions to visibility.

SCZ050-WAZ558-NCZ071-TXZ119-213-PAZ071-DCZ001-FLZ074-172-MI076-
NYZ176-178-MAZ016-IL014-TNZ027-NJZ106-GAZ044-MD014-221200-

...Gateway Observations for Charleston International...

CITY           SKY/WX    TMP DP  RH WIND       PRES   REMARKS
Chas Airport   MOCLDY    68  68 100 NE5       30.04R
Seattle        CLOUDY    52  48  86 SE6       30.02S
Charlotte      CLEAR     68  67  96 CALM      30.09R
Dallas DFW     MOCLDY    77  72  84 S14       29.93R
Dallas Love    CLOUDY    77  71  82 S5        29.94S
Philladelphia  MOCLDY    70  59  68 N6        30.04R
Wash National  CLOUDY    71  66  84 N7        30.06R
Baltimore      CLOUDY    68  65  90 CALM      30.05R
Miami          PTCLDY    81  78  91 CALM      29.88R
Detroit        MOCLDY    68  65  90 NE3       30.12S
Newark         MOCLDY    67  50  54 N14G22    30.01S
Laguardia      CLOUDY    68  50  52 N15       30.00S
J F K          CLOUDY    67  48  50 N17       30.00R
Boston Logan   LGT RAIN  57  55  93 N24G30    30.01S FOG
Ft. Lauderdale PTCLDY    79  78  97 N3        29.87S
Chicago O`Hare PTCLDY    74  67  78 CALM      30.05S
Chicago Midway CLOUDY    76  68  76 SW6       30.05S
Houston Bush   PTCLDY    72  71  97 CALM      29.94S
Houston Hobby  PTCLDY    76  73  91 CALM      29.93S
Nashville      CLEAR     67  66  97 CALM      30.07R FOG
Atlanta        PTCLDY    70  66  87 E8        30.07R

$$

GAZ044-118-TXZ119-213-NCZ071-DCZ001-MDZ014-506-PAZ021-071-NJZ106-
NYZ176-178-MAZ106-OHZ011-021-055-MIZ076-KYZ091-ILZ014-INZ047-
MNZ060-ONZ431-221200-

...Gateway Observations for Savannah International...

CITY           SKY/WX    TMP DP  RH WIND       PRES   REMARKS
Savannah Arpt  PTCLDY    70  69  97 CALM      30.03R FOG
Atlanta        PTCLDY    70  66  87 E8        30.07R
Charlotte      CLEAR     68  67  96 CALM      30.09R
Dallas DFW     MOCLDY    77  72  84 S14       29.93R
Houston Bush   PTCLDY    72  71  97 CALM      29.94S
Wash National  CLOUDY    71  66  84 N7        30.06R
Wash Dulles    CLOUDY    68  63  84 N5        30.07R
Baltimore      CLOUDY    68  65  90 CALM      30.05R
Philadelphia   MOCLDY    70  59  68 N6        30.04R
Newark         MOCLDY    67  50  54 N14G22    30.01S
Laguardia      CLOUDY    68  50  52 N15       30.00S
J F K          CLOUDY    67  48  50 N17       30.00R
Boston         LGT RAIN  57  55  93 N24G30    30.01S FOG
Pittsburg      CLOUDY    62  59  90 CALM      30.14R
Akron          PTCLDY    65  59  81 NE5       30.14R
Cleveland      PTCLDY    65  60  84 CALM      30.14R
Cincinnati     CLEAR     65  65 100 S3        30.11R FOG
Columbus       CLEAR     64  64 100 CALM      30.12R FOG
Detroit        MOCLDY    68  65  90 NE3       30.12S
Chicago O`Hare PTCLDY    74  67  78 CALM      30.05S
Minneapolis    PTCLDY    73  70  90 SE12      29.82F
Indianapolis   PTCLDY    72  69  90 SE5       30.10R
Toronto Canada PTCLDY    64  59  82 NE3       30.15R

$$




USA.gov is the U.S. government's official web portal to all federal, state and local government web resources and services.